FW3232 Weather Reports


Display with metric or nautical units.
time (UTC)temp
F
wind
direction
speed
MPH
gust
MPH
rain 1hr
in
rain 24hr
in
rain mn
in
humidity
%
barometer
mb
20260503032411 46 350 2.0 2.0 0.00 0.00 0.00 74 1020.2
20260503031913 46 347 1.0 2.0 0.00 0.00 0.00 74 1020.1
20260503031412 46 347 2.0 2.0 0.00 0.00 0.00 73 1020.1
20260503030911 46 347 0.0 2.0 0.00 0.00 0.00 73 1020.1
20260503030411 46 351 2.0 2.0 0.00 0.00 0.00 73 1020.1
20260503025912 46 351 2.0 2.0 0.00 0.00 0.00 72 1020.1
20260503025411 47 344 1.0 2.0 0.00 0.00 0.00 71 1020.1
20260503024911 47 347 2.0 2.0 0.00 0.00 0.00 70 1020.0
20260503024411 47 349 1.0 2.0 0.00 0.00 0.00 71 1020.0
20260503023913 47 343 1.0 2.0 0.00 0.00 0.00 70 1020.0
20260503023411 47 351 0.0 2.0 0.00 0.00 0.00 70 1020.0
20260503022911 47 352 1.0 2.0 0.00 0.00 0.00 69 1020.0
20260503022411 47 355 1.0 2.0 0.00 0.00 0.00 69 1019.9
20260503021913 47 343 1.0 2.0 0.00 0.00 0.00 68 1019.9
20260503021412 47 349 1.0 2.0 0.00 0.00 0.00 68 1019.9
20260503020913 47 345 2.0 2.0 0.00 0.00 0.00 68 1019.9
20260503020412 48 351 1.0 2.0 0.00 0.00 0.00 68 1019.8
20260503015911 48 350 2.0 2.0 0.00 0.00 0.00 66 1019.9
20260503015411 48 356 1.0 3.0 0.00 0.00 0.00 67 1019.8
20260503014911 49 348 1.0 2.0 0.00 0.00 0.00 67 1019.8
20260503014411 49 350 2.0 2.0 0.00 0.00 0.00 65 1019.8
20260503013911 50 345 1.0 2.0 0.00 0.00 0.00 65 1019.7
20260503013411 50 357 2.0 2.0 0.00 0.00 0.00 63 1019.7
20260503012911 51 356 2.0 2.0 0.00 0.00 0.00 62 1019.7
20260503012411 52 0 0.0 2.0 0.00 0.00 0.00 58 1019.7
20260503011911 52 352 1.0 2.0 0.00 0.00 0.00 60 1019.6
20260503011413 53 349 0.0 3.0 0.00 0.00 0.00 54 1019.6
20260503010911 53 349 2.0 3.0 0.00 0.00 0.00 58 1019.5
20260503010411 54 351 2.0 3.0 0.00 0.00 0.00 56 1019.5
20260503005910 55 349 2.0 3.0 0.00 0.00 0.00 54 1019.5
20260503005411 55 341 2.0 2.0 0.00 0.00 0.00 52 1019.4
20260503004912 56 347 2.0 3.0 0.00 0.00 0.00 52 1019.5
20260503004411 58 350 2.0 2.0 0.00 0.00 0.00 49 1019.5
20260503003911 59 349 2.0 2.0 0.00 0.00 0.00 45 1019.4
20260503003411 61 0 0.0 2.0 0.00 0.00 0.00 42 1019.4
20260503002912 62 326 2.0 6.0 0.00 0.00 0.00 39 1019.3
20260503002411 62 8 2.0 6.0 0.00 0.00 0.00 37 1019.2
20260503001912 63 359 2.0 4.0 0.00 0.00 0.00 36 1019.1
20260503001412 63 3 2.0 5.0 0.00 0.00 0.00 36 1019.2
20260503000911 63 5 1.0 4.0 0.00 0.00 0.00 36 1019.2
20260503000411 64 6 2.0 4.0 0.00 0.00 0.00 35 1019.2
20260502235911 64 351 3.0 5.0 0.00 0.00 0.00 35 1019.2
20260502235411 64 42 2.0 8.0 0.00 0.00 0.00 35 1019.2
20260502234911 64 39 3.0 5.0 0.00 0.00 0.00 35 1019.2
20260502234411 64 34 3.0 7.0 0.00 0.00 0.00 34 1019.2
20260502233912 65 49 3.0 6.0 0.00 0.00 0.00 34 1019.2
20260502233412 65 15 2.0 5.0 0.00 0.00 0.00 34 1019.2
20260502232912 65 346 1.0 5.0 0.00 0.00 0.00 34 1019.2
20260502232412 65 334 2.0 9.0 0.00 0.00 0.00 34 1019.2
20260502231912 65 349 5.0 9.0 0.00 0.00 0.00 34 1019.2
20260502231411 65 10 4.0 9.0 0.00 0.00 0.00 34 1019.2
20260502230915 66 85 2.0 7.0 0.00 0.00 0.00 34 1019.2
20260502230412 66 45 1.0 7.0 0.00 0.00 0.00 33 1019.3
20260502225911 66 45 3.0 7.0 0.00 0.00 0.00 33 1019.3
20260502225412 66 74 1.0 7.0 0.00 0.00 0.00 35 1019.3
20260502224911 67 43 3.0 6.0 0.00 0.00 0.00 35 1019.2
20260502224411 66 351 3.0 10.0 0.00 0.00 0.00 35 1019.2
20260502223911 67 31 3.0 9.0 0.00 0.00 0.00 35 1019.2
20260502223411 67 35 3.0 9.0 0.00 0.00 0.00 34 1019.1
20260502222911 67 26 2.0 9.0 0.00 0.00 0.00 35 1019.2
20260502222411 67 344 5.0 9.0 0.00 0.00 0.00 34 1019.1
20260502221911 68 337 4.0 7.0 0.00 0.00 0.00 32 1019.1
20260502221411 68 62 2.0 8.0 0.00 0.00 0.00 32 1019.1
20260502220911 68 35 2.0 10.0 0.00 0.00 0.00 34 1019.0
20260502220411 68 41 8.0 10.0 0.00 0.00 0.00 33 1019.1
20260502215911 68 10 2.0 9.0 0.00 0.00 0.00 33 1019.0
20260502215411 68 8 4.0 9.0 0.00 0.00 0.00 33 1019.1
20260502214912 68 57 3.0 9.0 0.00 0.00 0.00 32 1019.0
20260502214411 68 55 3.0 9.0 0.00 0.00 0.00 32 1019.0
20260502213911 68 13 6.0 9.0 0.00 0.00 0.00 32 1019.1
20260502213411 68 57 4.0 11.0 0.00 0.00 0.00 30 1019.1
20260502212911 67 64 3.0 9.0 0.00 0.00 0.00 32 1019.1
20260502212411 68 7 5.0 10.0 0.00 0.00 0.00 31 1019.2
20260502211911 68 15 5.0 9.0 0.00 0.00 0.00 32 1019.2
20260502211411 68 356 4.0 9.0 0.00 0.00 0.00 33 1019.3
20260502210911 69 349 3.0 10.0 0.00 0.00 0.00 32 1019.3
20260502210412 69 22 4.0 10.0 0.00 0.00 0.00 32 1019.2
20260502205911 69 59 2.0 9.0 0.00 0.00 0.00 32 1019.3
20260502205412 69 33 4.0 8.0 0.00 0.00 0.00 32 1019.4
20260502204911 68 332 5.0 9.0 0.00 0.00 0.00 31 1019.2
20260502204411 68 352 5.0 11.0 0.00 0.00 0.00 31 1019.4
20260502203911 68 344 3.0 13.0 0.00 0.00 0.00 31 1019.5
20260502203412 68 354 5.0 11.0 0.00 0.00 0.00 30 1019.5
20260502202911 68 7 4.0 9.0 0.00 0.00 0.00 32 1019.6
20260502202411 67 38 3.0 10.0 0.00 0.00 0.00 32 1019.6
20260502201911 67 338 6.0 12.0 0.00 0.00 0.00 32 1019.6
20260502201412 67 353 4.0 10.0 0.00 0.00 0.00 33 1019.8
20260502200912 67 16 6.0 13.0 0.00 0.00 0.00 32 1019.8
20260502200411 67 344 7.0 11.0 0.00 0.00 0.00 32 1019.7
20260502195911 67 24 7.0 12.0 0.00 0.00 0.00 32 1019.8
20260502195411 68 10 7.0 11.0 0.00 0.00 0.00 31 1019.8
20260502194911 68 344 4.0 12.0 0.00 0.00 0.00 32 1019.6
20260502194411 67 357 6.0 11.0 0.00 0.00 0.00 34 1019.7
20260502193911 67 336 5.0 13.0 0.00 0.00 0.00 34 1019.7
20260502193411 67 341 6.0 13.0 0.00 0.00 0.00 32 1019.7
20260502192911 67 46 5.0 10.0 0.00 0.00 0.00 34 1019.7
20260502192411 67 25 5.0 13.0 0.00 0.00 0.00 34 1019.8
20260502191912 68 53 6.0 13.0 0.00 0.00 0.00 33 1019.9
20260502191412 67 2 6.0 12.0 0.00 0.00 0.00 33 1019.8
20260502190911 67 64 5.0 12.0 0.00 0.00 0.00 32 1019.9
20260502190411 66 14 5.0 14.0 0.00 0.00 0.00 34 1020.0
20260502185912 67 351 6.0 13.0 0.00 0.00 0.00 33 1020.0
20260502185411 68 358 5.0 12.0 0.00 0.00 0.00 32 1020.0
20260502184911 68 337 7.0 12.0 0.00 0.00 0.00 33 1020.1
20260502184411 67 355 4.0 13.0 0.00 0.00 0.00 34 1020.0
20260502183912 67 18 6.0 11.0 0.00 0.00 0.00 35 1020.0
20260502183411 67 333 7.0 13.0 0.00 0.00 0.00 35 1020.1
20260502182912 67 351 6.0 13.0 0.00 0.00 0.00 34 1020.0
20260502182411 67 13 6.0 13.0 0.00 0.00 0.00 36 1020.1
20260502181911 67 357 4.0 11.0 0.00 0.00 0.00 34 1020.2
20260502181411 67 2 5.0 13.0 0.00 0.00 0.00 33 1020.3
20260502180911 67 14 3.0 13.0 0.00 0.00 0.00 35 1020.1
20260502180411 67 3 8.0 13.0 0.00 0.00 0.00 36 1020.5
20260502170411 68 35 5.0 11.0 0.00 0.00 0.00 35 1020.7
20260502163911 66 1 5.0 9.0 0.00 0.00 0.00 34 1020.8
20260502163412 66 3 3.0 10.0 0.00 0.00 0.00 33 1020.7
20260502162911 66 10 5.0 10.0 0.00 0.00 0.00 33 1020.7
20260502162412 65 55 4.0 11.0 0.00 0.00 0.00 34 1020.7
20260502161912 65 341 8.0 11.0 0.00 0.00 0.00 34 1020.7
20260502161412 65 357 4.0 13.0 0.00 0.00 0.00 33 1020.8
20260502160911 66 13 4.0 10.0 0.00 0.00 0.00 34 1020.7
20260502160412 66 345 6.0 11.0 0.00 0.00 0.00 33 1020.7
20260502151912 64 32 2.0 9.0 0.00 0.00 0.00 37 1020.7
20260502151411 63 62 4.0 10.0 0.00 0.00 0.00 37 1020.7
20260502150912 63 20 4.0 10.0 0.00 0.00 0.00 37 1020.7
20260502150413 63 46 4.0 9.0 0.00 0.00 0.00 37 1020.7
20260502130411 55 1 2.0 6.0 0.00 0.00 0.00 58 1019.9
20260502123411 51 290 0.0 4.0 0.00 0.00 0.00 67 1019.5
20260502122911 51 129 0.0 5.0 0.00 0.00 0.00 69 1019.4
20260502122411 50 25 3.0 5.0 0.00 0.00 0.00 70 1019.4
20260502121911 49 9 1.0 4.0 0.00 0.00 0.00 73 1019.2
20260502121411 47 59 1.0 3.0 0.00 0.00 0.00 75 1019.1
20260502120911 46 342 1.0 3.0 0.00 0.00 0.00 77 1019.2
20260502120411 45 9 0.0 3.0 0.00 0.00 0.00 83 1019.1
20260502115912 43 40 1.0 5.0 0.00 0.00 0.00 83 1019.0
20260502115411 41 350 1.0 4.0 0.00 0.00 0.00 93 1019.0
20260502114911 40 339 1.0 2.0 0.00 0.00 0.00 97 1019.0
20260502114411 39 344 0.0 2.0 0.00 0.00 0.00 98 1019.0
20260502113915 39 0 0.0 2.0 0.00 0.00 0.00 97 1018.9
20260502113411 39 9 0.0 1.0 0.00 0.00 0.00 97 1018.9
20260502112911 39 0 0.0 0.0 0.00 0.00 0.00 97 1018.9
20260502112411 40 0 0.0 4.0 0.00 0.00 0.00 97 1019.0
20260502111911 39 354 1.0 4.0 0.00 0.00 0.00 97 1018.9
20260502111411 40 319 0.0 2.0 0.00 0.00 0.00 97 1019.0
20260502110911 40 0 0.0 2.0 0.00 0.00 0.00 97 1019.0
20260502110412 40 0 0.0 4.0 0.00 0.00 0.00 97 1018.9
20260502105912 40 352 1.0 2.0 0.00 0.00 0.00 98 1018.8
20260502105411 40 337 0.0 3.0 0.00 0.00 0.00 98 1018.7
20260502104912 40 330 1.0 5.0 0.00 0.00 0.00 98 1018.6
20260502104412 40 353 2.0 2.0 0.00 0.00 0.00 98 1018.6
20260502103912 40 357 1.0 2.0 0.00 0.00 0.00 97 1018.6
20260502103411 40 0 0.0 2.0 0.00 0.00 0.00 97 1018.6
20260502102911 40 137 1.0 2.0 0.00 0.00 0.00 97 1018.5
20260502102411 40 0 0.0 1.0 0.00 0.00 0.00 97 1018.5
20260502101911 40 359 0.0 2.0 0.00 0.00 0.00 96 1018.5
20260502101411 40 351 1.0 2.0 0.00 0.00 0.00 96 1018.4
20260502100911 40 351 0.0 2.0 0.00 0.00 0.00 96 1018.5
20260502100411 40 352 0.0 4.0 0.00 0.00 0.00 96 1018.5
20260502091412 41 0 0.0 0.0 0.00 0.00 0.00 95 1018.2
20260502090912 41 0 0.0 0.0 0.00 0.00 0.00 94 1018.2
20260502090412 42 0 0.0 2.0 0.00 0.00 0.00 94 1018.1
20260502071411 42 354 2.0 3.0 0.00 0.00 0.00 89 1018.2
20260502070914 42 352 2.0 2.0 0.00 0.00 0.00 89 1018.2
20260502070412 43 351 2.0 2.0 0.00 0.00 0.00 88 1018.2
20260502065912 43 345 1.0 2.0 0.00 0.00 0.00 87 1018.2
20260502065411 43 347 1.0 2.0 0.00 0.00 0.00 88 1018.3
20260502064911 44 345 1.0 2.0 0.00 0.00 0.00 88 1018.2
20260502064412 44 0 0.0 0.0 0.00 0.00 0.00 89 1018.3
20260502063911 44 0 0.0 0.0 0.00 0.00 0.00 88 1018.3
20260502063412 45 0 0.0 1.0 0.00 0.00 0.00 86 1018.4
20260502062912 45 339 0.0 2.0 0.00 0.00 0.00 85 1018.3
20260502062411 45 342 1.0 2.0 0.00 0.00 0.00 84 1018.4
20260502061911 45 348 1.0 2.0 0.00 0.00 0.00 83 1018.4
20260502061411 44 350 1.0 2.0 0.00 0.00 0.00 82 1018.4
20260502060911 44 0 0.0 2.0 0.00 0.00 0.00 81 1018.5
20260502060411 44 358 0.0 2.0 0.00 0.00 0.00 81 1018.5
20260502055911 43 0 0.0 1.0 0.00 0.00 0.00 81 1018.5
20260502055411 43 283 0.0 2.0 0.00 0.00 0.00 81 1018.5
20260502054911 43 351 1.0 2.0 0.00 0.00 0.00 81 1018.5
20260502054412 43 0 0.0 2.0 0.00 0.00 0.00 81 1018.5
20260502053912 43 0 0.0 1.0 0.00 0.00 0.00 80 1018.5
20260502053411 43 356 0.0 2.0 0.00 0.00 0.00 79 1018.5
20260502052911 43 350 2.0 2.0 0.00 0.00 0.00 79 1018.4
20260502052412 43 333 0.0 2.0 0.00 0.00 0.00 80 1018.4
20260502051911 43 355 1.0 2.0 0.00 0.00 0.00 81 1018.5
20260502051411 43 357 1.0 2.0 0.00 0.00 0.00 80 1018.4
20260502050912 44 344 0.0 2.0 0.00 0.00 0.00 81 1018.4
20260502050412 44 0 0.0 0.0 0.00 0.00 0.00 83 1018.5
20260502045911 44 0 0.0 1.0 0.00 0.00 0.00 83 1018.5
20260502045411 44 358 0.0 2.0 0.00 0.00 0.00 80 1018.5
20260502044911 44 357 0.0 2.0 0.00 0.00 0.00 80 1018.4
20260502044411 44 346 1.0 2.0 0.00 0.00 0.00 80 1018.4
20260502043911 44 347 2.0 2.0 0.00 0.00 0.00 81 1018.4
20260502043412 44 346 2.0 2.0 0.00 0.00 0.00 79 1018.4
20260502042912 44 347 2.0 2.0 0.00 0.00 0.00 79 1018.4
20260502042411 45 0 0.0 0.0 0.00 0.00 0.00 84 1018.4
20260502041911 45 0 0.0 0.0 0.00 0.00 0.00 83 1018.4
20260502041411 45 0 0.0 0.0 0.00 0.00 0.00 83 1018.5
20260502040911 46 0 0.0 0.0 0.00 0.00 0.00 81 1018.6
20260502040411 46 0 0.0 1.0 0.00 0.00 0.00 79 1018.6
20260502035911 46 352 0.0 2.0 0.00 0.00 0.00 73 1018.6
20260502035411 46 349 1.0 2.0 0.00 0.00 0.00 75 1018.6
20260502034911 46 355 1.0 2.0 0.00 0.00 0.00 75 1018.6
20260502034411 46 352 1.0 2.0 0.00 0.00 0.00 74 1018.6
20260502033911 47 323 0.0 2.0 0.00 0.00 0.00 74 1018.6
20260502033411 47 350 2.0 2.0 0.00 0.00 0.00 73 1018.7
20260502032911 47 358 2.0 2.0 0.00 0.00 0.00 74 1018.6